EHI
0 0 0 0 0 0 0 0 0 0 0 0 0 0 0 0 0 0 0 0 0 0 0 0 0 0 0 0 0 0 0 0 0 0 0 0 0 0 0 0 0 0 0 0
0 0 0 0 0 0 0 0 0 0 0 0 0 0 0 0 0 0 0 0 0 0 0 0 0 0 0 0 0 0 0 0 0 0 0 0 0 0 0 0 0 0 0 0
0 0 0 0 0 0 0 0 0 0 0 0 0 0 0 0 0 0 0 0 0 0 0 0 0 0 0 0 0 0 0 0 0 0 0 0 0 0 0 0 0 0 0 0
0 0 0 0 0 0 0 0 0 0 0 0 0 0 0 0 0 0 0 0 0 0 0 0 0 0 0 0 0 0 0 0 0 0 0 0 0 0 0 0 0 0 0 0
0 0 0 0 0 0 0 0 0 0 0 0 0 0 0 0 0 0 0 0 0 0 0 0 0 0 0 0 0 0 0 0 0 0 0 0 0 0 0 0 0 0 0 0
0 0 0 0 0 0 0 0 0 0 0 0 0 0 0 0 0 0 0 0 0 0 0 0 0 0 0 0 0 0 0 0 0 0 0 0 0 0 0 0 0 0 0 0
0 0 0 0 0 0 0 0 0 0 0 0 0 0 0 0 0 0 0 0 0 0 0 0 0 0 0 0 0 0 0 0 0 0 0 0 0 0 0 0 0 0 0 0
0 0 0 0 0 0 0 0 0 0 0 0 0 0 0 0 0 0 0 0 0 0 0 0 0 0 0 0 0 0 0 0 0 0 0 0 0 0 0 0 0 0 0 0
0 0 0 0 0 0 0 0 0 0 0 0 0 0 0 0 0 0 0 0 0 0 0 0 0 0 0 0 0 0 0 0 0 0 0 0 0 0 0 0 0 0 0 0
0 0 0 0 0 0 0 0 0 0 0 0 0 0 0 0 0 0 0 0 0 0 0 0 0 0 0 0 0 0 0 0 0 0 0 0 0 0 0 0 0 0 0 0
0 0 0 0 0 0 0 0 0 0 0 0 0 0 0 0 0 0 0 0 0 0 0 0 0 0 0 0 0 0 0 0 0 0 0 0 0 0 0 0 0 0 0 0
0 0 0 0 0 0 0 0 0 0 0 0 0 0 0 0 0 0 0 0 0 0 0 0 0 0 0 0 0 0 0 0 0 0 0 0 0 0 0 0 0 0 0 0
0 0 0 0 0 0 0 0 0 0 0 0 0 0 0 0 0 0 0 0 0 0 0 0 0 0 0 0 0 0 0 0 0 0 0 0 0 0 0 0 0 0 0 0
0 0 0 0 0 0 0 0 0 0 0 0 0 0 0 0 0 0 0 0 0 0 0 0 0 0 0 0 0 0 0 0 0 0 0 0 0 0 0 0 0 0 0 0
0 0 0 0 0 0 0 0 0 0 0 0 0 0 0 0 0 0 0 0 0 0 0 0 0 0 0 0 0 0 0 0 0 0 0 0 0 0 0 0 0 0 0 0
0 0 0 0 0 0 0 0 0 0 0 0 0 0 0 0 0 0 0 0 0 0 0 0 0 0 0 0 0 0 0 0 0 0 0 0 0 0 0 0 0 0 0 0
0 0 0 0 0 0 0 0 0 0 0 0 0 0 0 0 0 0 0 0 0 0 0 0 0 0 0 0 0 0 0 0 0 0 0 0 0 0 0 0 0 0 0 0
0 0 0 0 0 0 0 0 0 0 0 0 0 0 0 0 0 0 0 0 0 0 0 0 0 0 0 0 0 0 0 0 0 0 0 0 0 0 0 0 0 0 0 0
0 0 0 0 0 0 0 0 0 0 0 0 0 0 0 0 0 0 0 0 0 0 0 0 0 0 0 0 0 0 0 0 0 0 0 0 0 0 0 0 0 0 0 0
0 0 0 0 0 0 0 0 0 0 0 0 0 0 0 0 0 0 0 0 0 0 0 0 0 0 0 0 0 0 0 0 0 0 0 0 0 0 0 0 0 0 0 0
0 0 0 0 0 0 0 0 0 0 0 0 0 0 0 0 0 0 0 0 0 0 0 0 0 0 0 0 0 0 0 0 0 0 0 0 0 0 0 0 0 0 0 0
0 0 0 0 0 0 0 0 0 0 0 0 0 0 0 0 0 0 0 0 0 0 0 0 0 0 0 0 0 0 0 0 0 0 0 0 0 0 0 0 0 0 0 0
0 0 0 0 0 0 0 0 0 0 0 0 0 0 0 0 0 0 0 0 0 0 0 0 0 0 0 0 0 0 0 0 0 0 0 0 0 0 0 0 0 0 0 0
0 0 0 0 0 0 0 0 0 0 0 0 0 0 0 0 0 0 0 0 0 0 0 0 0 0 0 0 0 0 0 0 0 0 0 0 0 0 0 0 0 0 0 0
0 0 0 0 0 0 0 0 0 0 0 0 0 0 0 0 0 0 0 0 0 0 0 0 0 0 0 0 0 0 0 0 0 0 0 0 0 0 0 0 0 0 0 0
0 0 0 0 0 0 0 0 0 0 0 0 0 0 0 0 0 0 0 0 0 0 0 0 0 0 0 0 0 0 0 0 0 0 0 0 0 0 0 0 0 0 0 0
0 0 0 0 0 0 0 0 0 0 0 0 0 0 0 0 0 0 0 0 0 0 0 0 0 0 0 0 0 0 0 0 0 0 0 0 0 0 0 0 0 0 0 0
Wind_Speed
21 22 22 15 15 17 20 20 17 8 13 15 11 12 14 14 13 12 9 7 5 5 7 6 7 7 8 7 7 8 8 8 7 7 7 7 7 7 7 7 8 7 7 7
22 24 24 23 16 18 21 21 17 6 16 13 15 14 13 12 11 9 7 6 6 7 7 7 7 7 7 7 7 7 7 8 7 7 7 7 6 6 6 6 7 7 7 8
21 23 23 24 18 16 15 15 9 6 16 17 18 16 14 11 9 7 7 7 8 8 8 7 6 5 6 6 6 6 6 7 7 7 7 7 8 7 7 7 7 7 6 6
19 22 24 10 10 13 5 7 15 20 19 17 17 16 13 10 9 9 9 9 8 7 7 5 4 4 5 6 6 6 6 7 7 7 8 7 7 7 7 6 6 5 5 6
16 21 20 8 4 4 8 12 16 19 18 19 19 17 13 12 11 11 10 8 7 5 5 4 4 4 5 5 5 6 6 6 6 7 8 8 7 7 6 6 5 5 5 5
9 14 14 8 5 3 10 8 13 17 18 17 14 11 11 10 11 11 9 7 5 4 4 3 3 4 5 5 5 6 6 6 6 6 7 8 6 6 6 5 5 6 6 5
12 7 1 2 5 6 6 8 14 16 15 12 11 11 12 12 11 9 8 6 4 4 3 3 2 3 4 5 5 6 6 6 6 5 6 6 4 4 5 5 5 5 6 5
10 5 3 3 7 6 8 14 16 16 17 17 15 14 12 12 10 8 7 6 4 3 2 1 2 3 5 5 6 6 6 7 6 5 7 6 4 4 4 3 5 5 5 6
5 5 7 5 9 11 13 16 16 17 16 14 13 12 11 11 9 8 7 5 3 1 1 0 1 3 5 5 6 7 7 6 6 7 6 5 4 4 3 3 5 7 8 9
10 10 11 11 12 12 15 17 17 16 14 12 12 11 10 9 8 7 5 4 1 1 1 1 1 3 4 5 6 7 7 7 6 6 4 4 3 2 3 6 8 9 10 10
13 13 12 11 13 16 17 17 17 15 14 13 11 10 10 9 8 6 5 3 2 2 1 1 2 3 4 5 6 6 7 6 8 7 5 5 5 7 9 11 10 9 9 9
9 12 12 15 16 17 17 17 16 15 14 12 11 10 10 9 7 6 5 4 3 1 1 2 3 3 5 5 6 6 7 7 8 6 6 6 6 9 15 11 12 10 7 7
11 12 16 18 17 16 16 16 16 15 14 12 11 10 10 8 7 6 6 5 3 1 1 2 3 6 6 6 7 7 7 7 8 8 8 8 8 7 6 5 5 3 4 8
14 16 18 17 16 17 17 17 16 15 13 12 10 9 9 8 7 7 6 4 2 1 1 4 7 7 7 7 6 6 8 9 9 8 8 9 10 11 10 8 5 3 2 8
14 15 15 17 17 16 15 14 13 12 12 11 9 9 8 8 7 7 5 3 1 2 5 7 7 7 8 8 6 6 7 7 7 8 9 11 11 11 10 11 9 9 9 11
15 15 16 16 15 14 12 12 12 11 11 10 9 9 8 8 7 6 4 2 3 6 7 7 7 8 8 8 8 4 5 6 7 9 11 11 11 11 10 10 10 9 9 10
14 14 14 14 12 11 11 11 10 10 10 10 9 9 8 8 7 5 4 5 6 7 7 7 7 8 9 9 10 7 8 8 9 10 11 11 11 10 10 9 9 9 8 10
11 11 11 11 10 11 10 11 10 10 10 10 10 9 8 7 6 5 6 6 6 7 7 6 7 7 8 8 7 7 8 8 9 10 11 11 10 10 10 9 10 11 9 10
11 11 11 10 10 9 9 10 10 10 10 10 9 8 7 6 6 5 5 6 7 8 6 5 4 7 8 9 6 6 9 9 9 10 11 11 11 10 9 9 9 10 10 10
11 10 10 9 8 8 9 9 9 9 9 9 9 8 7 6 5 4 5 8 7 6 5 5 5 7 7 9 8 8 9 10 10 10 10 10 10 10 9 10 10 10 10 10
8 8 8 8 8 8 8 9 9 9 9 9 9 8 7 6 6 5 6 7 7 6 4 4 5 6 7 7 6 9 9 10 10 10 9 9 9 9 9 9 9 9 9 9
6 5 5 6 7 7 7 8 8 9 9 8 9 9 8 7 6 5 8 7 6 2 2 7 7 8 10 7 8 9 9 10 9 9 9 9 8 8 8 8 8 7 7 8
5 5 5 5 6 7 8 8 9 9 9 8 9 9 8 7 6 7 7 6 7 7 7 7 6 9 11 5 8 8 9 10 9 9 9 9 9 8 8 8 7 7 7 7
6 6 6 6 7 8 9 9 9 8 8 8 8 9 8 6 5 9 9 10 10 9 7 3 5 8 5 7 8 8 9 9 9 9 9 9 8 9 9 9 9 9 9 10
7 7 8 8 8 7 9 9 9 8 9 7 9 10 8 6 8 9 9 10 10 9 6 2 3 4 6 9 9 9 8 8 8 8 9 9 9 9 9 10 10 10 11 11
7 6 6 7 6 6 7 7 7 7 7 8 8 8 6 8 12 10 8 10 10 8 7 5 5 5 7 8 8 8 7 7 8 8 9 9 10 10 10 10 13 10 11 11
7 6 6 6 7 7 7 7 7 8 8 8 9 8 8 10 10 9 10 9 8 7 6 6 7 7 7 8 8 7 7 7 7 8 8 8 8 9 9 11 10 10 10 11
Wind_Direction
266 268 267 246 239 259 265 261 254 223 144 157 144 133 129 127 131 134 136 128 107 81 63 42 34 22 14 6 358 347 338 335 334 331 321 315 315 318 323 328 336 340 343 353
264 263 264 262 239 230 244 257 264 153 131 146 132 129 130 133 137 139 131 110 84 66 58 46 29 13 6 355 348 338 331 327 330 326 322 325 324 332 337 340 341 344 350 359
252 257 260 255 259 252 237 230 247 138 136 140 134 133 130 129 129 120 99 77 63 56 58 49 35 11 354 342 337 334 333 333 340 341 341 345 343 347 345 344 343 345 354 10
243 244 246 260 301 282 241 110 95 106 129 128 119 111 106 106 102 90 77 64 56 44 48 43 30 9 344 334 335 337 346 350 354 350 345 340 337 342 342 339 338 339 355 13
243 237 233 188 217 247 131 116 118 121 121 117 114 111 101 89 86 82 78 71 65 49 42 37 14 357 336 331 338 347 353 352 354 344 335 328 334 340 335 332 334 338 354 4
255 248 231 187 170 123 114 121 122 121 121 124 135 139 121 106 95 89 82 71 57 40 36 29 13 337 324 325 337 346 342 337 332 329 325 319 334 334 330 328 338 338 354 3
233 238 343 115 126 114 153 140 123 117 116 109 87 92 110 106 96 92 91 81 51 32 24 21 344 320 316 321 338 334 323 314 311 312 304 304 326 318 323 340 343 344 359 5
219 178 157 196 143 127 104 115 117 114 105 101 103 108 111 108 106 100 93 77 40 18 23 18 312 310 314 327 331 319 310 307 306 295 297 306 300 306 323 344 346 356 3 357
65 88 109 95 84 103 111 112 111 108 109 115 118 116 108 104 98 88 78 71 42 15 75 197 266 303 320 327 327 319 314 312 299 290 284 283 291 310 319 347 0 1 3 356
96 98 96 104 115 113 110 108 108 110 114 116 111 107 105 101 94 89 81 82 97 114 120 141 304 311 305 325 328 324 323 316 308 301 304 309 307 328 358 19 21 15 11 357
109 119 121 130 123 115 110 109 108 106 102 101 102 100 99 94 90 89 96 103 114 102 92 7 316 312 340 354 332 332 324 333 331 329 347 332 28 42 58 59 60 42 19 359
133 147 142 132 121 118 114 109 106 102 95 89 90 92 94 97 102 111 121 132 132 129 24 340 327 3 22 2 347 350 343 359 339 343 356 0 44 72 74 95 88 76 45 10
141 144 130 126 124 119 111 106 102 99 95 89 84 90 101 111 119 127 132 129 123 132 351 332 13 32 19 10 17 13 2 10 343 355 3 11 22 55 88 95 92 80 24 11
122 124 128 125 117 110 106 102 98 94 92 92 94 100 109 117 126 130 126 126 155 249 31 39 44 31 11 15 31 32 17 16 356 4 12 24 32 34 36 39 41 30 5 17
116 122 119 115 112 110 111 113 111 105 102 102 105 111 120 126 128 125 129 143 180 52 50 46 41 29 20 8 7 58 41 20 5 18 24 35 35 35 32 29 27 23 19 13
117 118 119 120 121 125 127 123 115 111 109 112 115 120 126 129 128 129 134 106 71 60 50 42 34 33 33 8 350 77 88 38 18 36 35 39 38 36 31 28 26 24 20 11
127 131 132 132 133 131 123 118 117 115 118 120 124 132 136 137 136 142 130 95 75 63 51 39 28 33 41 21 359 25 48 46 38 49 45 43 42 36 33 30 27 23 17 9
128 131 133 136 135 128 123 120 117 117 122 126 136 144 145 147 144 139 130 125 106 82 60 41 25 34 41 30 358 20 42 48 45 53 56 48 45 39 36 33 28 23 11 4
122 125 130 132 133 133 128 123 123 125 130 137 146 153 152 144 141 154 166 145 118 99 85 63 32 52 40 16 5 57 48 49 52 58 64 60 50 43 38 35 29 23 14 7
122 127 131 134 136 133 130 128 128 131 137 145 150 154 154 152 166 156 97 75 70 79 73 38 56 55 38 14 13 53 53 53 52 54 62 61 55 47 41 36 30 24 17 11
146 150 152 151 144 144 144 141 141 143 145 153 158 163 162 169 175 154 132 107 95 86 87 65 50 48 35 1 31 56 55 56 55 52 52 60 63 57 48 43 36 28 19 13
171 170 167 159 156 152 147 147 150 151 154 163 168 169 170 181 171 120 91 102 105 82 80 85 67 30 358 359 61 59 57 57 59 57 51 48 54 59 58 52 45 37 28 21
175 177 180 178 166 156 153 157 156 156 164 172 174 175 180 184 157 133 121 111 98 86 81 72 31 3 346 59 72 67 61 57 55 57 57 50 44 44 49 52 50 44 37 30
163 166 167 164 160 161 162 161 156 161 172 178 177 184 191 181 134 102 100 96 92 96 93 70 356 349 350 73 67 62 59 57 58 55 52 53 49 43 41 40 40 38 38 39
153 153 154 156 160 160 156 153 156 166 178 182 182 190 191 156 124 117 114 113 124 119 120 120 316 340 82 83 81 75 65 53 50 54 56 52 48 45 41 41 40 39 33 32
147 149 149 154 152 152 155 160 166 173 182 181 180 187 171 123 115 122 134 140 136 145 150 147 130 118 98 96 91 90 89 85 72 62 55 53 53 51 44 38 40 42 42 35
146 146 147 148 151 156 158 167 172 179 185 183 181 177 149 134 140 147 142 143 157 173 158 134 113 104 100 95 90 85 80 73 68 65 61 57 54 52 51 47 42 40 40 42